This demonstration page uses our WeatherBlox Daily Observations layout. Learn more.

Left ArrowRight Arrow

38.80484, -77.04692

Hourly Observations for March 15, 2022

Temp ( °F °C ) Dew Point ( °F °C ) Humidity (%) Winds ( mph kmh ) Pressure ( in mb ) Visibility ( mi km ) Precip ( " mm )
12:52 am 00:52 Mostly Clear 46 7.8 33 0.6 61 61 S 9 15 30.36 1028 10 16 0.00 0.00
1:52 am 01:52 Mostly Clear 46 7.8 31 -0.6 56 56 S 5 7 30.35 1028 10 16 0.00 0.00
2:52 am 02:52 Clear 45 7.2 31 -0.6 58 58 SSW 8 13 30.33 1027 10 16 0.00 0.00
3:52 am 03:52 Clear 44 6.7 31 -0.6 60 60 S 7 11 30.30 1026 10 16 0.00 0.00
4:52 am 04:52 Mostly Clear 43 6.1 32 0 65 65 S 7 11 30.29 1026 10 16 0.00 0.00
5:52 am 05:52 Mostly Cloudy 44 6.7 32 0 63 63 Calm 30.29 1026 10 16 0.00 0.00
6:52 am 06:52 Partly Cloudy 43 6.1 32 0 65 65 SW 3 6 30.30 1026 10 16 0.00 0.00
7:52 am 07:52 Partly Cloudy 43 6.1 33 0.6 68 68 SSW 3 6 30.30 1026 10 16 0.00 0.00
8:52 am 08:52 Mostly Cloudy 45 7.2 36 2.2 71 71 S 5 7 30.29 1026 10 16 0.00 0.00
9:52 am 09:52 Mostly Cloudy 50 10 35 1.7 57 57 SSE 5 7 30.29 1026 10 16 0.00 0.00
10:52 am 10:52 Mostly Cloudy 55 12.8 35 1.7 47 47 S 8 13 30.28 1025 10 16 0.00 0.00
11:52 am 11:52 Mostly Cloudy 59 15 35 1.7 41 41 S 9 15 30.26 1025 10 16 0.00 0.00
12:52 pm 12:52 Partly Cloudy 64 17.8 36 2.2 35 35 S 9 15 30.24 1024 10 16 0.00 0.00
1:52 pm 13:52 Partly Cloudy 68 20 34 1.1 28 28 S 7 11 30.21 1023 10 16 0.00 0.00
2:52 pm 14:52 Partly Cloudy 70 21.1 33 0.6 26 26 S 8 13 30.17 1022 10 16 0.00 0.00
3:52 pm 15:52 Partly Cloudy 71 21.7 32 0 24 24 S 9 15 30.15 1021 10 16 0.00 0.00
4:52 pm 16:52 Partly Cloudy 67 19.4 33 0.6 28 28 S 16 26 30.12 1020 10 16 0.00 0.00
5:52 pm 17:52 Mostly Cloudy 66 18.9 34 1.1 30 30 S 10 17 30.12 1020 10 16 0.00 0.00
6:52 pm 18:52 Mostly Cloudy 64 17.8 34 1.1 33 33 S 8 13 30.13 1020 10 16 0.00 0.00
7:52 pm 19:52 Mostly Cloudy 60 15.6 35 1.7 39 39 S 7 11 30.13 1020 10 16 0.00 0.00
8:52 pm 20:52 Partly Cloudy 58 14.4 36 2.2 44 44 S 9 15 30.13 1020 10 16 0.00 0.00
9:52 pm 21:52 Partly Cloudy 56 13.3 35 1.7 46 46 S 7 11 30.14 1021 10 16 0.00 0.00
10:52 pm 22:52 Partly Cloudy 55 12.8 35 1.7 47 47 NE 3 6 30.15 1021 10 16 0.00 0.00
11:52 pm 23:52 Mostly Clear 51 10.6 38 3.3 61 61 S 10 17 30.16 1021 10 16 0.00 0.00

Powered by AerisWeather